FW3734 Weather Reports


Display with metric or nautical units.
time (UTC)temp
F
wind
direction
speed
MPH
gust
MPH
rain 1hr
in
rain 24hr
in
rain mn
in
humidity
%
barometer
mb
20260504214556 77 193 0.0 5.0 0.00 0.11 0.11 56 1002.5
20260504213055 76 177 0.0 7.0 0.00 0.11 0.11 58 1002.5
20260504211631 75 200 0.0 3.0 0.00 0.11 0.11 62 1002.6
20260504210049 75 184 0.0 1.0 0.00 0.11 0.11 66 1002.8
20260504204542 73 202 0.0 4.0 0.00 0.11 0.11 69 1003.0
20260504203036 71 158 2.0 11.0 0.00 0.11 0.11 72 1003.2
20260504201532 69 158 0.0 6.0 0.00 0.11 0.11 80 1003.4
20260504200031 67 136 0.0 6.0 0.00 0.11 0.11 84 1003.3
20260504194528 66 136 0.0 0.0 0.01 0.11 0.11 87 1003.5
20260504193027 64 149 0.0 0.0 0.02 0.11 0.11 90 1003.8
20260504191527 62 142 3.0 11.0 0.08 0.11 0.11 89 1003.4
20260504190023 62 149 0.0 0.0 0.09 0.11 0.11 88 1004.7
20260504184535 62 192 0.0 0.0 0.07 0.09 0.09 86 1005.3
20260504183021 62 145 4.0 8.0 0.07 0.09 0.09 83 1004.2
20260504181517 63 124 0.0 0.0 0.01 0.03 0.03 80 1005.4
20260504180016 63 50 0.0 3.0 0.01 0.02 0.02 79 1005.6
20260504174516 62 221 0.0 0.0 0.02 0.02 0.02 81 1005.2
20260504173015 62 221 0.0 0.0 0.02 0.02 0.02 81 1005.2
20260504171514 63 199 0.0 1.0 0.02 0.02 0.02 78 1005.4
20260504081523 61 132 1.0 3.0 0.00 0.00 0.00 69 1008.1
20260504044546 67 208 0.0 7.0 0.00 0.00 0.00 55 1008.0
20260504043047 67 186 0.0 3.0 0.00 0.00 0.00 54 1008.5
20260504041542 68 184 0.0 7.0 0.00 0.00 0.00 53 1008.8
20260504040041 68 242 0.0 3.0 0.00 0.00 0.00 52 1008.7
20260504034540 68 168 0.0 2.0 0.00 0.00 0.00 52 1009.5
20260504033140 68 231 0.0 3.0 0.00 0.00 0.00 52 1009.5
20260504031552 68 261 0.0 3.0 0.00 0.00 0.00 51 1009.6
20260504030042 68 207 0.0 2.0 0.00 0.00 0.00 51 1009.4
20260504024539 68 212 0.0 0.0 0.00 0.00 0.00 50 1009.2
20260504023039 69 207 0.0 2.0 0.00 0.00 0.00 50 1009.2
20260504021538 69 207 0.0 0.0 0.00 0.00 0.00 50 1009.2
20260504020038 70 207 0.0 0.0 0.00 0.00 0.00 49 1009.0
20260504014541 70 207 0.0 0.0 0.00 0.00 0.00 47 1008.9
20260504013041 71 213 0.0 0.0 0.00 0.00 0.00 46 1008.8
20260504011540 72 216 0.0 0.0 0.00 0.00 0.00 45 1008.7
20260504010036 72 220 0.0 0.0 0.00 0.00 0.00 44 1008.8
20260504004536 73 220 0.0 3.0 0.00 0.00 0.00 43 1008.7
20260504003033 74 190 0.0 0.0 0.00 0.00 0.00 41 1008.8
20260504001537 75 205 0.0 1.0 0.00 0.00 0.00 40 1008.7
20260504000032 76 200 0.0 5.0 0.00 0.00 0.00 38 1008.8
20260503234546 76 237 0.0 7.0 0.00 0.00 0.00 37 1008.9
20260503233037 77 218 0.0 13.0 0.00 0.00 0.00 36 1009.0
20260503231533 77 159 0.0 1.0 0.00 0.00 0.00 35 1009.1
20260503230031 77 225 0.0 14.0 0.00 0.00 0.00 34 1009.2
20260503224524 77 286 0.0 6.0 0.00 0.00 0.00 34 1009.4
20260503223022 78 220 0.0 4.0 0.00 0.00 0.00 32 1009.4
20260503221527 78 196 0.0 9.0 0.00 0.00 0.00 32 1009.7